Location: Eboldshausen
(51.7766°N, 10.0050°E)
Time: 08:08:03
(UTC+00:00)

NPP - Pass Details

Date: 15 June 2024
Orbit: 826 x 828 km, 98.7° (Epoch: 23 July)

Event Time Altitude Azimuth Distance (km) Brightness Sun altitude
Rises 02:06:18 0° 11° (N) 3,383 8.1 -6.6°
Reaches altitude 10° 02:08:45 10° 5° (N) 2,445 7.1 -6.4°
Maximum altitude 02:13:51 44° 295° (WNW) 1,135 4.3 -5.9°
Drops below altitude 10° 02:18:55 10° 225° (SW) 2,428 5.4 -5.4°
Enters shadow 02:19:46 - 222° (SW) 2,747 5.7 -5.3°
